This is the latest recevied weather packets stored in our database for station/object DM8MH-13. If no packets are shown the sender has not sent any weather packets the latest 1 day(s).
| Time | Temp. | Humidity | Pressure | Rain* | Wind** | Luminosity | Snow |
|---|---|---|---|---|---|---|---|
| 1778068871 | 19.44° C | 71% | 1004.2 hPa | 0 mm | - | 252 W/m² | - |
| 1778067671 | 18.89° C | 76% | 1004.1 hPa | 0 mm | - | 614 W/m² | - |
| 1778067072 | 18.33° C | 78% | 1004.2 hPa | 0 mm | - | 509 W/m² | - |
| 1778065871 | 17.78° C | 80% | 1004.4 hPa | 0 mm | - | 410 W/m² | - |
| 1778063471 | 17.22° C | 81% | 1004.6 hPa | 0 mm | - | 270 W/m² | - |
| 1778062871 | 16.67° C | 81% | 1004.6 hPa | 0 mm | - | 311 W/m² | - |
| 1778062271 | 16.67° C | 83% | 1004.5 hPa | 0 mm | - | 248 W/m² | - |
| 1778061671 | 16.11° C | 84% | 1004.5 hPa | 0 mm | - | 350 W/m² | - |
| 1778060471 | 15.56° C | 86% | 1004.3 hPa | 0 mm | - | 335 W/m² | - |
| 1778059271 | 15° C | 91% | 1004.3 hPa | 0 mm | - | 264 W/m² | - |
| 1778057471 | 13.33° C | 92% | 1004.1 hPa | 0 mm | - | 285 W/m² | - |
| 1778056871 | 12.78° C | 92% | 1004.2 hPa | 0 mm | - | 142 W/m² | - |
| 1778056271 | 12.78° C | 92% | 1004.2 hPa | 0 mm | - | 103 W/m² | - |
| 1778055071 | 12.78° C | 92% | 1004 hPa | 0 mm | - | 51 W/m² | - |
| 1778054470 | 12.78° C | 92% | 1004 hPa | 0 mm | - | 73 W/m² | - |
| 1778053872 | 12.78° C | 92% | 1004.1 hPa | 0 mm | - | 89 W/m² | - |
| 1778053271 | 12.78° C | 91% | 1004 hPa | 0.25 mm | - | 84 W/m² | - |
| 1778052671 | 12.78° C | 91% | 1004 hPa | 0.25 mm | - | 104 W/m² | - |
| 1778052071 | 12.78° C | 91% | 1004 hPa | 0.25 mm | - | 90 W/m² | - |
| 1778050871 | 12.78° C | 92% | 1004.1 hPa | 0.25 mm | - | 85 W/m² | - |
| 1778050271 | 12.78° C | 92% | 1004 hPa | 0.25 mm | - | 140 W/m² | - |
| 1778049071 | 12.22° C | 92% | 1004 hPa | 0 mm | - | 90 W/m² | - |
| 1778047271 | 12.22° C | 93% | 1004.1 hPa | 0 mm | - | 64 W/m² | - |
| 1778046071 | 12.78° C | 93% | 1004 hPa | 0 mm | - | 89 W/m² | - |
| 1778045471 | 12.22° C | 93% | 1004.1 hPa | 0 mm | - | 72 W/m² | - |
* Rain latest hour (hover to see other rain measurements)
** Current wind speed in m/s (hover to see current wind gust speed)